Location: Im Fang
(46.6019°N, 7.2397°E)
Time: 11:01:05
(UTC+00:00)

USA 116 - Pass Details

Date: 08 December 2019
Orbit: 405 x 834 km, 97.9° (Epoch: 18 November)

Event Time Altitude Azimuth Distance (km) Brightness Sun altitude
Rises 05:14:44 0° 175° (S) 2,789 7.6 -17.6°
Reaches altitude 10° 05:16:48 10° 179° (S) 1,955 6.7 -17.3°
Maximum altitude 05:21:02 61° 260° (W) 757 4.1 -16.5°
Drops below altitude 10° 05:25:51 10° 341° (NNW) 2,212 6.4 -15.8°
Enters shadow 05:26:11 - 341° (NNW) 2,346 6.6 -15.7°
